Temperature
18 18 18 18 18 18 18 18 18 17 17 17 16 16 16 16 16 16 16 15 15 15 15 14 14 14 14 14 13 13 13 13 12 12 12 11 11 11
17 17 17 17 18 18 18 18 18 18 17 17 16 16 16 16 16 15 15 15 15 14 14 14 14 14 13 13 13 12 12 12 12 11 11 11 11 10
17 17 17 17 17 17 17 17 17 17 17 16 16 16 15 15 15 15 15 14 14 14 14 13 13 13 13 12 12 12 11 11 11 11 10 10 10 10
17 17 17 17 17 17 17 17 17 17 17 16 16 15 15 15 15 14 14 14 14 13 13 13 13 12 12 12 11 11 11 11 10 10 10 10 9 9
17 17 17 17 17 17 17 17 17 16 16 16 15 15 15 14 14 14 13 13 13 12 12 12 12 12 11 11 11 11 10 10 10 10 9 9 9 9
16 16 16 16 16 17 17 16 16 16 16 15 15 14 14 14 13 13 13 12 12 12 12 12 11 11 11 10 10 10 10 10 9 9 9 9 8 8
16 16 16 16 16 16 16 16 16 16 15 15 14 14 14 13 13 13 12 12 11 11 11 11 11 10 10 10 10 9 9 9 9 8 8 8 8 8
16 16 16 16 16 16 16 16 15 15 15 15 14 14 14 13 13 12 12 11 11 10 10 10 10 10 9 9 9 9 9 8 8 8 8 8 7 7
16 16 15 15 15 15 15 15 15 15 14 14 14 14 13 13 13 12 12 11 11 11 10 10 9 9 9 9 8 8 8 8 8 8 7 7 7 7
15 15 15 15 15 15 15 14 14 14 14 14 13 13 13 13 12 12 12 11 10 10 10 9 9 9 9 8 8 8 8 8 7 7 7 7 7 6
15 15 15 15 14 14 14 14 13 13 13 13 13 13 12 12 12 11 11 10 10 9 9 9 9 9 8 8 8 8 7 7 7 7 7 7 6 6
14 14 14 14 14 13 13 13 13 13 12 12 12 12 12 11 11 11 11 10 10 9 9 9 9 8 8 8 8 8 7 7 7 7 7 6 6 6
14 14 13 13 13 13 13 13 12 12 12 11 11 11 11 11 10 10 10 10 10 9 9 9 9 8 8 8 8 7 7 7 7 7 7 6 6 6
13 13 13 12 12 12 12 12 12 11 11 11 11 10 10 10 10 10 10 9 9 9 9 8 8 8 8 8 7 7 7 7 7 7 7 6 6 6
13 12 12 12 11 11 11 11 11 10 10 10 10 10 10 9 9 9 9 9 9 8 8 8 8 8 8 8 8 7 7 7 7 7 6 6 6 6
12 11 11 11 11 10 10 10 10 10 10 10 9 9 9 9 8 8 8 8 8 8 8 8 8 8 8 8 7 7 7 7 7 7 6 6 6 6
11 11 10 10 10 10 10 9 9 9 9 9 9 9 8 8 8 8 8 8 8 8 7 7 7 7 7 7 7 7 7 7 7 7 7 6 6 6
10 10 10 10 9 9 9 9 9 9 9 9 9 8 8 8 8 8 8 7 7 7 7 7 7 7 7 7 7 7 7 7 7 7 6 6 6 7
10 9 9 9 9 9 9 9 9 9 8 8 8 8 8 8 8 8 7 7 7 7 7 7 7 7 7 7 7 7 7 7 7 7 7 7 7 7
9 9 9 9 9 9 9 8 8 8 8 8 8 8 8 8 8 8 7 7 7 7 7 7 7 6 7 7 7 7 7 7 7 6 7 7 7 7
9 9 9 8 8 8 8 8 8 8 8 8 8 8 8 8 7 7 7 7 7 7 7 7 7 7 7 7 7 7 7 7 7 7 7 7 7 7
8 8 8 8 8 8 8 8 8 8 7 7 7 7 7 7 7 7 7 7 7 7 7 7 7 6 6 6 7 7 7 7 7 7 7 7 7 7
8 8 8 8 8 8 7 7 7 7 7 7 7 7 7 7 7 7 7 7 7 7 7 6 6 6 6 7 7 7 7 7 7 7 7 7 7 7
Wind_Speed
5 5 5 4 4 3 3 3 4 4 3 3 3 3 7 9 11 11 11 14 15 15 14 13 13 13 12 12 11 11 10 10 9 9 9 8 7 7
4 4 4 4 3 3 4 3 3 4 3 2 2 3 7 9 10 10 11 13 14 14 14 14 13 13 12 12 11 11 10 9 9 9 8 8 7 7
5 5 5 4 3 3 3 2 2 3 3 2 2 3 4 6 9 11 11 12 11 13 14 14 13 13 12 11 11 10 10 9 9 8 8 8 8 7
5 4 4 4 4 4 3 4 3 3 4 5 4 3 4 6 7 7 9 10 11 12 14 14 13 13 12 11 11 10 10 9 8 8 7 7 7 6
4 4 4 4 4 4 3 3 3 4 4 6 5 3 3 5 6 5 7 7 9 11 12 12 12 12 12 11 11 10 9 9 8 7 7 7 6 5
2 2 3 3 4 4 4 3 3 3 4 5 5 5 5 5 6 6 5 4 4 8 9 10 12 11 11 10 10 9 9 9 8 7 7 7 6 5
1 1 1 1 1 1 3 3 4 4 5 6 6 5 5 6 6 5 6 5 3 4 4 7 9 9 9 9 9 8 8 8 7 6 5 4 3 2
1 1 1 1 2 3 4 3 3 4 5 5 5 7 7 6 5 7 6 5 4 4 4 4 7 4 7 8 10 10 9 7 6 5 4 3 2 2
1 1 2 1 2 3 4 4 3 2 3 4 5 6 6 7 7 7 6 4 3 5 4 3 4 4 7 9 13 11 10 8 7 6 5 5 5 5
0 1 1 1 2 3 4 4 4 3 2 2 3 4 4 5 6 6 7 5 3 3 4 3 3 3 6 10 13 12 10 9 8 7 7 7 7 7
1 2 2 3 5 5 5 5 5 4 8 10 9 9 10 10 8 5 6 6 4 3 2 2 3 3 4 4 11 13 12 11 10 10 9 8 8 8
2 3 5 4 5 5 4 5 5 3 5 6 7 8 8 9 8 5 5 5 4 3 3 2 3 3 3 3 7 12 12 12 12 12 11 10 9 7
2 2 3 5 5 4 3 3 5 5 5 6 6 5 5 4 4 4 3 3 3 2 4 3 2 2 2 2 3 7 11 10 11 12 13 13 11 8
2 3 3 5 5 4 3 5 6 5 5 5 5 5 5 5 4 5 5 5 4 4 6 4 2 3 2 2 2 4 6 9 9 9 11 11 12 12
3 5 6 6 5 4 5 5 4 3 4 5 5 4 4 5 5 5 5 5 5 5 6 5 2 2 2 2 2 3 3 4 6 5 5 6 6 7
5 6 6 4 3 4 4 2 1 2 3 4 4 5 5 5 4 5 5 5 4 3 3 4 4 2 1 1 2 2 2 3 3 3 2 3 6 8
5 4 3 3 3 3 2 2 2 2 3 3 4 5 5 5 5 4 4 4 4 4 4 2 4 3 2 1 1 1 1 2 2 2 2 3 4 7
4 4 4 4 4 4 4 3 3 3 3 4 4 4 5 5 5 4 3 3 4 4 4 3 3 1 0 1 1 1 1 1 1 2 3 4 4 4
3 4 4 4 4 4 4 4 4 3 3 3 4 4 4 4 4 4 4 3 3 3 3 3 3 3 3 3 3 5 3 2 2 2 3 4 4 3
3 3 4 3 3 3 3 3 3 4 3 3 3 4 4 4 4 4 4 4 4 3 3 3 3 2 2 2 2 4 8 4 3 3 3 3 3 5
3 3 3 3 3 3 3 2 3 3 4 3 3 4 4 4 4 4 4 5 3 3 3 3 3 4 2 1 2 3 4 10 8 4 3 3 4 4
3 3 2 2 2 2 3 3 3 3 4 3 3 4 3 3 3 4 4 4 3 3 3 3 3 3 3 3 4 3 4 5 10 14 13 11 4 4
2 2 2 2 2 3 3 4 4 3 4 4 3 3 3 3 3 3 3 3 3 3 3 3 3 3 4 4 4 4 4 4 4 5 7 16 20 21
Wind_Direction
232 232 235 249 239 231 220 199 197 206 202 176 149 137 127 124 137 138 139 146 146 143 140 137 134 129 125 122 119 116 113 110 107 102 97 92 86 78
232 233 232 256 264 237 225 220 207 196 196 164 141 140 131 131 136 134 136 139 142 142 140 138 137 134 131 128 124 120 115 110 106 103 98 92 86 80
230 227 222 240 257 258 233 214 209 186 169 143 124 124 124 125 128 130 131 130 132 140 141 140 138 136 134 133 131 128 122 116 111 105 99 93 88 83
228 232 230 236 236 251 248 232 219 191 166 158 158 156 137 135 134 134 134 134 131 138 142 141 141 139 139 140 137 133 127 122 116 109 104 98 94 88
231 227 231 234 241 237 234 233 214 197 165 161 165 160 149 142 133 130 123 126 132 137 139 141 144 145 147 145 142 139 134 128 123 119 113 106 97 89
260 247 240 235 240 232 228 217 203 177 161 158 158 160 156 152 147 147 140 143 139 141 140 144 147 148 151 150 149 147 142 137 131 125 120 112 103 96
259 271 253 211 236 237 227 200 179 170 168 169 168 164 167 168 170 169 160 151 132 140 140 154 151 150 151 150 152 151 147 141 136 131 128 126 127 133
207 235 222 143 101 108 108 118 143 172 179 182 182 177 176 174 168 166 161 162 165 169 159 167 157 156 159 157 161 161 160 159 157 157 161 176 201 229
209 231 237 166 118 118 105 99 95 120 168 186 182 177 173 177 171 170 170 169 165 164 156 163 157 160 165 165 167 170 173 179 185 193 204 216 234 251
59 110 131 136 113 114 114 100 80 62 96 138 153 161 157 159 168 164 159 139 117 142 149 160 167 164 151 157 172 178 185 194 203 214 223 233 241 249
91 69 90 93 88 106 121 120 109 87 74 88 99 108 113 121 128 141 156 155 154 165 175 165 163 151 150 165 184 191 198 205 214 220 226 235 244 250
97 84 75 98 106 109 132 139 137 131 119 104 101 109 118 126 130 139 159 166 155 158 171 172 161 153 161 178 184 195 207 218 223 228 233 240 249 248
131 108 86 95 104 111 130 138 146 144 137 133 128 125 125 129 131 124 122 150 151 142 159 165 172 166 159 161 177 189 197 207 214 227 236 241 244 242
114 110 106 107 104 100 111 129 137 144 144 141 140 141 143 142 134 127 123 120 108 127 146 158 170 167 167 165 173 183 196 201 199 209 219 230 237 242
103 111 120 125 123 111 118 130 143 152 148 148 148 147 142 136 136 135 131 123 115 129 139 154 160 153 171 175 163 175 187 199 198 202 201 200 215 226
120 120 118 110 107 113 129 147 174 151 152 149 145 140 138 146 153 154 155 154 144 141 147 154 156 142 178 191 167 182 184 187 188 181 178 219 238 238
141 148 151 149 147 154 167 174 170 164 151 148 147 150 155 159 161 161 165 167 160 157 158 162 164 169 174 170 195 211 209 207 179 163 186 246 250 238
153 168 173 179 183 184 181 180 187 184 175 162 159 163 165 164 163 168 177 179 162 160 157 156 150 141 236 287 231 226 237 232 213 199 216 238 256 244
187 185 186 191 194 190 188 189 187 179 178 173 173 168 163 163 165 167 169 163 151 150 154 162 174 179 199 216 227 231 229 238 234 233 236 239 248 244
217 194 186 190 195 194 189 192 180 173 176 179 174 167 167 171 169 168 165 165 168 165 167 176 179 179 197 228 211 225 226 221 238 249 262 268 264 254
208 207 198 188 190 190 180 170 168 172 172 174 177 177 177 177 178 179 162 157 176 181 176 174 182 193 215 234 232 220 216 224 229 228 245 271 280 279
207 203 210 203 187 169 164 170 175 173 172 187 189 183 182 177 173 172 174 181 192 185 168 171 184 201 218 229 246 241 228 224 236 243 245 243 236 248
220 195 183 189 182 174 174 181 184 184 190 192 183 177 181 176 177 181 184 190 192 190 177 184 195 214 230 234 244 252 249 236 236 237 247 249 246 249
Height
1564 1565 1566 1566 1568 1568 1569 1570 1571 1571 1572 1573 1573 1574 1575 1575 1576 1577 1577 1578 1578 1579 1580 1580 1581 1581 1582 1582 1583 1583 1583 1583 1583 1582 1582 1582 1581 1581
1560 1561 1562 1563 1564 1565 1566 1566 1567 1568 1568 1569 1570 1572 1572 1572 1573 1574 1575 1575 1576 1577 1577 1578 1578 1579 1579 1580 1580 1580 1580 1580 1580 1580 1579 1579 1579 1578
1556 1557 1558 1559 1559 1560 1561 1562 1562 1563 1564 1565 1567 1568 1569 1569 1570 1571 1572 1573 1573 1574 1575 1576 1576 1577 1577 1578 1578 1578 1578 1578 1578 1577 1577 1577 1577 1576
1553 1553 1554 1555 1555 1556 1557 1557 1558 1559 1560 1561 1563 1564 1565 1566 1567 1568 1569 1570 1571 1572 1573 1573 1574 1574 1575 1575 1575 1575 1575 1575 1575 1575 1575 1574 1574 1574
1549 1550 1550 1550 1551 1552 1552 1553 1554 1555 1556 1557 1558 1560 1562 1563 1564 1565 1566 1567 1568 1569 1570 1571 1571 1572 1572 1572 1572 1573 1573 1573 1573 1572 1572 1572 1572 1572
1545 1545 1546 1546 1547 1547 1548 1548 1549 1550 1551 1553 1554 1556 1557 1559 1560 1561 1563 1564 1565 1566 1567 1568 1568 1569 1570 1570 1570 1570 1570 1570 1570 1570 1570 1570 1569 1569
1541 1541 1542 1542 1542 1543 1543 1544 1545 1546 1547 1549 1550 1552 1553 1555 1556 1558 1559 1561 1562 1564 1564 1565 1566 1566 1567 1567 1568 1568 1568 1567 1567 1567 1567 1567 1567 1567
1537 1537 1538 1538 1538 1538 1539 1540 1541 1542 1543 1545 1546 1547 1548 1550 1552 1554 1556 1557 1559 1561 1562 1563 1564 1564 1565 1565 1566 1566 1566 1566 1566 1566 1566 1566 1566 1566
1534 1534 1534 1534 1535 1535 1535 1536 1537 1538 1540 1541 1541 1543 1544 1547 1549 1550 1552 1554 1555 1557 1559 1560 1561 1562 1563 1563 1564 1564 1564 1564 1564 1565 1565 1565 1565 1565
1531 1531 1531 1531 1531 1532 1532 1532 1533 1534 1536 1537 1538 1540 1542 1544 1546 1547 1549 1551 1553 1554 1556 1557 1558 1560 1561 1561 1562 1563 1563 1563 1563 1563 1563 1563 1563 1564
1528 1528 1528 1528 1528 1529 1529 1530 1530 1531 1533 1534 1536 1537 1539 1541 1542 1544 1545 1547 1549 1551 1552 1554 1555 1557 1558 1559 1560 1561 1561 1562 1562 1562 1562 1562 1562 1562
1526 1526 1526 1526 1526 1526 1527 1527 1528 1529 1530 1531 1533 1534 1536 1537 1539 1540 1542 1544 1545 1548 1549 1551 1552 1554 1555 1557 1558 1558 1559 1560 1560 1561 1561 1561 1561 1560
1523 1523 1523 1524 1524 1524 1525 1525 1526 1527 1528 1529 1530 1531 1533 1534 1536 1538 1539 1541 1543 1544 1546 1548 1549 1551 1553 1554 1555 1556 1557 1558 1559 1559 1559 1560 1560 1559
1521 1521 1521 1522 1522 1522 1523 1524 1525 1525 1526 1527 1528 1529 1530 1532 1534 1535 1537 1539 1541 1543 1544 1546 1547 1549 1550 1552 1553 1555 1556 1556 1557 1557 1558 1558 1558 1558
1518 1519 1519 1519 1520 1520 1521 1522 1523 1524 1525 1526 1526 1528 1529 1531 1532 1534 1536 1537 1539 1540 1542 1544 1545 1547 1548 1550 1551 1553 1553 1554 1555 1556 1556 1556 1556 1555
1516 1516 1517 1517 1518 1519 1519 1520 1521 1522 1523 1525 1526 1527 1528 1529 1531 1533 1534 1536 1537 1539 1540 1542 1544 1545 1546 1548 1549 1550 1552 1552 1553 1553 1553 1553 1553 1553
1513 1514 1515 1515 1516 1517 1518 1519 1520 1521 1522 1523 1525 1526 1527 1528 1530 1532 1533 1535 1536 1537 1539 1541 1542 1544 1546 1547 1548 1549 1550 1551 1551 1551 1551 1551 1551 1551
1512 1512 1513 1513 1514 1515 1516 1517 1518 1519 1520 1522 1523 1525 1526 1528 1529 1531 1532 1534 1535 1536 1537 1539 1541 1543 1544 1545 1547 1547 1548 1549 1549 1549 1549 1549 1548 1548
1509 1510 1511 1511 1512 1513 1514 1515 1516 1517 1518 1520 1521 1523 1525 1526 1528 1529 1531 1533 1534 1535 1537 1538 1539 1541 1542 1543 1544 1545 1546 1546 1547 1547 1547 1546 1546 1545
1507 1508 1508 1509 1510 1511 1512 1513 1514 1515 1516 1518 1520 1521 1523 1525 1526 1528 1529 1531 1532 1534 1536 1537 1538 1539 1540 1542 1542 1542 1543 1543 1544 1544 1544 1543 1542 1542
1504 1505 1506 1507 1508 1509 1510 1511 1512 1513 1515 1516 1518 1519 1521 1523 1524 1526 1528 1529 1531 1533 1534 1535 1537 1538 1539 1540 1540 1540 1541 1541 1541 1541 1540 1540 1539 1538
1502 1503 1504 1505 1506 1507 1507 1508 1510 1511 1513 1514 1516 1518 1519 1521 1522 1524 1526 1528 1529 1530 1532 1534 1535 1536 1537 1537 1537 1537 1537 1538 1538 1537 1537 1537 1535 1534
1500 1501 1502 1502 1503 1504 1505 1506 1508 1509 1511 1512 1514 1515 1517 1519 1521 1522 1524 1526 1527 1529 1530 1531 1533 1534 1534 1535 1535 1535 1535 1534 1534 1534 1533 1533 1532 1531